{"data":{"norad_id":64548,"epoch":"2026-05-25T03:50:55.473792Z","epoch_age_seconds":68368,"freshness":"FRESH","line1":"1 64548U 25135W   26145.16036428  .00005383  00000+0  24719-3 0  9995","line2":"2 64548  97.4747 260.7069 0001824 135.3545 224.7838 15.20815109 51358","mean_motion":15.20815109,"eccentricity":0.0001824,"inclination_deg":97.4747,"raan_deg":260.7069,"arg_perigee_deg":135.3545,"mean_anomaly_deg":224.7838,"bstar":0.00024719,"rev_number":5135,"period_min":94.686066141654,"perigee_km":502.12547501912,"apogee_km":504.63585266289,"semimajor_km":6881.517663841,"source":"CELESTRAK","updated_at":"2026-05-25T13:38:04.612334Z"}}